Flag for Japan Weather past 2 weeks in Fukuoka, Japan

Now
64 °F

Passing clouds.


Feels Like: 64 °F
Forecast: 55 / 72 °F
Wind: 3 mph from Southeast

Location: Fukuoka Airport


UV Index: 7 (High)

Visibility: N/A


Pressure: 30.18 "Hg

Humidity: 43%

Dew point: 41 °F

Location of FukuokaLocation

Historic Weather in Fukuoka

°F

Fukuoka temperature yesterday

Maximum temperature yesterday: 72 °F (at 1:00 PM)
Minimum temperature yesterday: 48 °F (at 4:00 AM)
Average temperature yesterday: 60 °F

Past Weeks' High & Low Weather Summary

 TemperatureHumidityPressure
High73 °F (Apr 16, 2:00 PM)94% (Apr 13, 5:00 AM)30.18 "Hg (Apr 13, 5:00 AM)
Low46 °F (Apr 15, 3:30 AM)18% (Apr 14, 4:00 PM)29.77 "Hg (Apr 18, 12:00 AM)
Average60 °F66%30.00 "Hg
* Reported Apr 9 8:00 AM — Apr 24 8:30 AM, Fukuoka, Weather by CustomWeather, © 2014

Note: Actual official high and low records may vary slightly from our data, if they occured in-between our weather recording intervals... More about our weather records

Advertising

Historic Weather Conditions — Data for Previous 24 hours

 ConditionsComfort  
Time TempWeatherWind HumidityBarometerVisibility
8:30 AM
Apr 24
63 °FSunny.5 mph39%30.18 "Hg10 mi
8:00 AM57 °FPassing clouds.3 mph51%30.18 "HgN/A
7:30 AM55 °FSunny.3 mph59%30.15 "Hg10 mi
7:00 AM52 °FSunny.3 mph67%30.15 "Hg10 mi
6:30 AM52 °FSunny.3 mph62%30.15 "Hg10 mi
6:00 AM52 °FSunny.3 mph62%30.12 "Hg10 mi
5:30 AM48 °FClear.3 mph71%30.12 "Hg10 mi
5:00 AM52 °FClear.3 mph67%30.12 "Hg10 mi
4:30 AM50 °FClear.2 mph67%30.12 "Hg10 mi
4:00 AM52 °FClear.5 mph67%30.12 "Hg10 mi
3:30 AM52 °FClear.1 mph67%30.12 "Hg10 mi
3:00 AM54 °FClear.2 mph58%30.09 "Hg10 mi
2:30 AM54 °FClear.2 mph63%30.12 "Hg10 mi
2:00 AM54 °FClear.2 mph63%30.12 "Hg10 mi
1:30 AM54 °FClear.1 mph67%30.12 "Hg10 mi
1:00 AM52 °FClear.1 mph67%30.09 "Hg10 mi
12:30 AM54 °FClear.2 mph63%30.09 "Hg10 mi
12:00 AM55 °FPassing clouds.3 mph59%30.09 "HgN/A
11:30 PM
Apr 23
55 °FClear.2 mph59%30.09 "Hg10 mi
11:00 PM55 °FClear.2 mph55%30.09 "Hg10 mi
10:30 PM59 °FClear.1 mph45%30.09 "Hg10 mi
10:00 PM59 °FPassing clouds.3 mph48%30.09 "HgN/A
9:30 PM59 °FPassing clouds.3 mph55%30.09 "HgN/A
9:00 PM59 °FClear.2 mph51%30.07 "Hg10 mi
8:30 PM63 °FClear.2 mph37%30.07 "Hg10 mi
8:00 PM63 °FClear.2 mph37%30.04 "Hg10 mi
7:30 PM66 °FPassing clouds.6 mph30%30.04 "HgN/A
7:00 PM66 °FClear.7 mph30%30.04 "Hg10 mi
6:30 PM68 °FSunny.8 mph38%30.01 "Hg10 mi
6:00 PM68 °FSunny.9 mph38%30.01 "Hg10 mi
5:30 PM70 °FSunny.12 mph33%30.01 "Hg10 mi
5:00 PM70 °FSunny.12 mph33%30.01 "Hg10 mi
4:30 PM72 °FSunny.13 mph29%30.01 "Hg10 mi
4:00 PM72 °FSunny.15 mph27%30.01 "Hg10 mi
3:30 PM70 °FSunny.15 mph33%30.01 "Hg10 mi
3:00 PM72 °FSunny.15 mph33%30.01 "Hg10 mi
2:30 PM70 °FSunny.15 mph35%30.01 "Hg10 mi
2:00 PM72 °FPassing clouds.15 mph31%30.04 "HgN/A
1:30 PM72 °FPassing clouds.14 mph31%30.04 "HgN/A
1:00 PM72 °FPassing clouds.14 mph33%30.04 "HgN/A
12:30 PM70 °FPassing clouds.12 mph38%30.04 "HgN/A
11:30 AM68 °FPassing clouds.7 mph40%30.07 "HgN/A
11:00 AM66 °FPassing clouds.7 mph46%30.07 "HgN/A
10:30 AM66 °FPassing clouds.6 mph46%30.09 "HgN/A
10:00 AM64 °FPassing clouds.3 mph46%30.09 "HgN/A
9:30 AM63 °FPassing clouds.2 mph56%30.09 "HgN/A
9:00 AM61 °FPassing clouds.2 mph68%30.09 "HgN/A
Weather by CustomWeather, © 2014

See weather overview